[keps] orb10273.2l.amsat

Ray Hoad ray.hoad at mypbmail.com
Thu Sep 30 20:16:32 PDT 2010


SB KEPS @ AMSAT  $ORB10273.N
2Line Orbital Elements 10273.AMSAT

HR AMSAT ORBITAL ELEMENTS FOR AMATEUR SATELLITES IN NASA FORMAT
FROM WA5QGD FORT WORTH,TX September 30, 2010
BID: ORB10273.N

DECODE 2-LINE ELSETS WITH THE FOLLOWING KEY:
1 AAAAAU 00  0  0 BBBBB.BBBBBBBB  .CCCCCCCC  00000-0  00000-0 0  DDDZ
2 AAAAA EEE.EEEE FFF.FFFF GGGGGGG HHH.HHHH III.IIII JJ.JJJJJJJJKKKKKZ
KEY: A-CATALOGNUM B-EPOCHTIME C-DECAY D-ELSETNUM E-INCLINATION F-RAAN
G-ECCENTRICITY H-ARGPERIGEE I-MNANOM J-MNMOTION K-ORBITNUM Z-CHECKSUM

TO ALL RADIO AMATEURS BT

AO-07
1 07530U 74089B   10273.46710209 -.00000027  00000-0  10000-3 0  8909
2 07530 101.4006 285.2451 0012161 067.6573 292.5794 12.53579821641643
FO-29
1 24278U 96046B   10273.55929418 -.00000025  00000-0  10856-4 0  4092
2 24278 098.5170 088.1440 0350167 210.3937 147.6481 13.52952660697357
SO-33
1 25509U 98061B   10272.40114350  .00000164  00000-0  21320-4 0 08043
2 25509 031.4314 279.1832 0353595 121.1966 242.3813 14.28330436622969
RS-22
1 27939U 03042A   10273.69202779  .00000165  00000-0  40540-4 0  5900
2 27939 097.8751 134.6166 0014743 085.9635 274.3247 14.63457458374382
VO-52
1 28650U 05017B   10273.81387658 -.00000058  00000-0 -85512-6 0  6105
2 28650 097.6803 323.0632 0025928 292.4864 067.3574 14.81814499292336
SO-67
1 35870U 09049F   10273.90307170  .00001056  00000-0  50508-4 0  1531
2 35870 097.3197 320.1805 0004676 086.3972 000.0349 15.21080983 57520
HO-68
1 36122U 09072B   10273.74742907 -.00000045  00000-0  00000 0 0  7161
2 36122 100.4581 333.0527 0007801 095.5635 264.6372 13.16281884 38101
UO-11
1 14781U 84021B   10273.30142945 -.00000118  00000-0 -85562-5 0  3512
2 14781 098.0429 325.2944 0008058 259.6677 100.3648 14.79837777427350
AO-16
1 20439U 90005D   10273.42669509  .00000031  00000-0  27291-4 0    64
2 20439 098.3444 227.2543 0010212 211.1638 148.8948 14.31875866 80442
LO-19
1 20442U 90005G   10273.40756491 -.00000038  00000-0  12235-5 0  9153
2 20442 098.3075 232.6162 0011347 205.0382 155.0271 14.32105239 80610
AO-27
1 22825U 93061C   10272.38931744 -.00000044  00000-0 -24251-6 0 06390
2 22825 098.4965 217.6918 0008092 328.3769 031.6913 14.29309114886934
IO-26
1 22826U 93061D   10273.90589663  .00000025  00000-0  26559-4 0  3776
2 22826 098.4896 219.7332 0008431 318.4184 041.6362 14.29567106887262
GO-32
1 25397U 98043D   10272.85572716 -.00000107  00000-0 -29205-4 0 02965
2 25397 098.3160 274.5589 0001124 005.7697 354.3497 14.23185190634931
NO-44
1 26931U 01043C   10273.42420535  .00000219  00000-0  11769-3 0  5701
2 26931 067.0532 292.8353 0005419 270.2742 089.7731 14.29613678469798
SO-50
1 27607U 02058C   10273.81991407 -.00000000  00000-0  21670-4 0  2825
2 27607 064.5583 035.6581 0042176 031.8697 328.4925 14.71581789417924
CO-55
1 27844U 03031E   10273.45304513  .00000086  00000-0  59932-4 0  9479
2 27844 098.7111 280.9264 0008991 226.0830 133.9612 14.20733183376039
CO-57
1 27848U 03031J   10273.49806136  .00000050  00000-0  43785-4 0  8935
2 27848 098.7157 280.0853 0008974 230.2027 129.8370 14.20523487375997
AO-51
1 28375U 04025K   10273.85425587  .00000030  00000-0  21579-4 0  7879
2 28375 098.0715 261.3865 0084097 135.9367 224.8560 14.40700737328722
GENESAT1
1 29655U 06058C   10216.61700559  .10637092  69904-5  33715-3 0  2265
2 29655 040.0059 067.3006 0005079 297.8744 064.7087 16.44862838207776
CP3
1 31129U 07012N   10273.35351265  .00000315  00000-0  83378-4 0  6875
2 31129 097.9308 307.2487 0101011 267.6752 091.2898 14.52310532183122
CO-65
1 32785U 08021C   10273.71639289  .00000080  00000-0  16866-4 0  7979
2 32785 097.8846 337.1231 0014273 304.9614 055.0238 14.81724779131113
KKS-1
1 33493U 09002B   10273.91850248  .00000895  00000-0  12192-3 0  9016
2 33493 098.0977 034.3870 0020396 155.9435 204.2739 14.81123644 91136
SOHLA-1
1 33496U 09002E   10273.36131749  .00000257  00000-0  51598-4 0  2172
2 33496 098.0654 021.1143 0005761 224.0466 136.0295 14.69519803 90320
TISAT-1
1 36799U 10035E   10273.85089937  .00000494  00000-0  72117-4 0  1738
2 36799 098.1378 334.1378 0016404 037.7229 322.5111 14.80181147 11941
STUDSAT
1 36801U 10035G   10272.79888631  .00001262  00000-0  17519-3 0 00773
2 36801 098.1406 332.9983 0014892 028.7414 331.4614 14.79677060011781
NOAA-10
1 16969U 86073A   10273.50745582 -.00000028  00000-0  65575-5 0  2227
2 16969 098.6489 301.4504 0011428 265.0021 094.9856 14.27428214250605
NOAA-11
1 19531U 88089A   10273.32180365 -.00000173  00000-0 -67119-4 0  2313
2 19531 098.7666 000.5441 0010946 205.5476 154.5165 14.14935792136008
NOAA-12
1 21263U 91032A   10273.41538462  .00000057  00000-0  42930-4 0  7256
2 21263 098.7647 286.5607 0011772 218.7141 141.3197 14.25656645  7392
MET-3/5
1 21655U 91056A   10272.86529344  .00000051  00000-0  10000-3 0 09274
2 21655 082.5560 234.6654 0014962 087.0120 273.2769 13.17025200919452
MET-2/21
1 22782U 93055A   10272.78458619  .00000038  00000-0  20953-4 0 08985
2 22782 082.5490 169.4703 0023764 107.9479 252.4283 13.83649994862547
OKEAN-4
1 23317U 94066A   10273.31986262  .00000190  00000-0  20492-4 0  3536
2 23317 082.5380 255.7213 0020314 254.7325 105.1652 14.82866256862034
NOAA-14
1 23455U 94089A   10273.37885359  .00000041  00000-0  44982-4 0  2146
2 23455 098.8726 353.3572 0008729 301.1200 058.9112 14.13795670812361
NOAA-15
1 25338U 98030A   10273.41801430  .00000220  00000-0  11291-3 0  5419
2 25338 098.6306 258.5128 0011460 125.4990 234.7274 14.24858002643734
RESURS
1 25394U 98043A   10273.37864341  .00000025  00000-0  28664-4 0  6158
2 25394 098.3036 285.7265 0000687 314.4918 045.6206 14.24210956635326
FENGYUN1
1 25730U 99025A   10272.82045300  .00000639  00000-0  39801-3 0  1473
2 25730 098.7938 235.0863 0022183 333.0185 026.9870 14.08302322586410
OKEAN-0
1 25860U 99039A   10273.52489308  .00000110  00000-0  24166-4 0  1125
2 25860 097.8460 242.7188 0001870 085.4524 274.6892 14.73666414602416
NOAA-16
1 26536U 00055A   10273.41185627 -.00000015  00000-0  17130-4 0   173
2 26536 099.1669 293.3467 0011040 045.7405 314.4693 14.12577292516685
NOAA-17
1 27453U 02032A   10273.38003499  .00000233  00000-0  11889-3 0   109
2 27453 098.4187 319.5277 0011624 185.5345 174.5713 14.24195007429678
NOAA-18
1 28654U 05018A   10273.43324569 -.00000117  00000-0 -39764-4 0  4986
2 28654 098.9606 219.4394 0015167 114.9746 245.3010 14.11391214276286
NOAA-19
1 33591U 09005A   10273.44419876  .00000128  00000-0  94942-4 0  6946
2 33591 098.7955 213.3617 0014251 355.1155 004.9869 14.11089156 84753
HUBBLE
1 20580U 90037B   10272.23879036  .00000645  00000-0  36481-4 0  6521
2 20580 028.4704 280.5493 0003568 222.9977 137.0272 15.01047691920404
ISS
1 25544U 98067A   10274.00438780  .00016846  00000-0  13277-3 0  9868
2 25544 051.6461 049.2272 0007187 051.0041 054.0995 15.71552096680114
CO-58
1 28895U 05043F   10273.39264466  .00000206  00000-0  52409-4 0  6929
2 28895 097.9967 154.2936 0016930 318.0130 041.9792 14.59939364262337
FALCON
1 30776U 07006E   10273.91434565  .00001121  00000-0  82841-4 0  9268
2 30776 035.4328 122.3227 0001900 348.5116 011.5556 15.03845811195988
MAST
1 31126U 07012K   10273.67728617  .00000136  00000-0  41337-4 0  9767
2 31126 097.9268 310.1802 0093438 258.2401 100.8317 14.53624077183382
CAPE1
1 31130U 07012P   10273.34834137  .00000144  00000-0  44022-4 0  9944
2 31130 097.9294 307.0739 0101463 268.1670 090.7873 14.52227588182924
COMPASS
1 32787U 08021E   10273.29842074  .00000792  00000-0  10645-3 0  7903
2 32787 097.8830 336.5545 0015050 306.8127 053.1662 14.81983142131068
AAUSAT2
1 32788U 08021F   10272.61602595  .00000871  00000-0  11600-3 0 07811
2 32788 097.8840 336.0346 0014677 310.1860 049.8126 14.82131418130978
DO-64
1 32789U 08021G   10273.76051641  .00001327  00000-0  17237-3 0  7997
2 32789 097.8909 337.7606 0014559 303.1095 056.8705 14.82334228131148
CO-66
1 32791U 08021J   10273.20114564  .00000234  00000-0  36321-4 0  7838
2 32791 097.8848 336.4602 0015403 305.8243 054.1587 14.81748137131009
RS-30
1 32953U 08025A   10273.65072943  .00000010  00000-0  00000 0 0   908
2 32953 082.5048 324.1077 0017736 229.7441 130.2090 12.43008021106843
TACSAT-3
1 35001U 09028A   10272.55644394  .00007552  00000-0  17190-3 0 04085
2 35001 040.4562 306.7240 0021019 063.8756 296.4220 15.42869184076750
PHARMSAT
1 35002U 09028B   10272.47811859  .00006386  00000-0  14398-3 0  3708
2 35002 040.4706 304.8716 0023842 066.5413 293.7906 15.43274724 76767
HAWKSAT1
1 35003U 09028C   10272.46795593  .00015177  00000-0  28953-3 0  4019
2 35003 040.4598 296.2392 0021558 087.2326 273.0956 15.47511605 76869
CP6
1 35004U 09028D   10272.46087459  .00018639  00000-0  33910-3 0  3974
2 35004 040.4601 294.3942 0020573 092.2492 268.0682 15.48785281 76876
AEROCUB3
1 35005U 09028E   10273.47735782  .00081235  00000-0  94692-3 0  4681
2 35005 040.4682 278.4571 0019824 126.4765 233.7887 15.60378511 77142
CASTOR
1 35694U 09038F   10230.44082147  .07179566  12689-4  99310-4 0  6559
2 35694 051.5930 222.0149 0004218 308.0851 053.0105 16.48877011 61107
METEOR-M
1 35865U 09049A   10273.69172490  .00000176  00000-0  10000-3 0  7020
2 35865 098.7460 326.6728 0003356 058.8938 301.2550 14.21831794 53717
RS-38
1 35869U 09049E   10273.79242652  .00000177  00000-0  10000-3 0  7136
2 35869 098.7452 326.8123 0005437 063.0843 297.0870 14.21989635 53735
/EX




More information about the Keps mailing list